Погода в Преображенском

Россия / Республика Мордовия     54°22′54″N   43°49′32″E
темп.,
°C
ветер,
м/с
пор.,
м/с
влажн.,
%
обл.,
%
осадки,
мм/ч
давл.,
гПа
погр.,
м
9 мая, вс
вс900:00+10ююв51386100 0.4 1008367
03:00+11ююв51288100 1.4 1007394
06:00+11ююв51291100 0.0 1007480
09:00+13ююв4888100 0.1 1007439
12:00+13ююв61293100 2.4 1007670
15:00+11з6895100 7.8 1008462
18:00+10сз2595100 2.9 1011400
21:00+8зюз4695100 3.9 1014273
10 мая, пн
пн1000:00+8зсз2497100 0.3 1015249
03:00+7с5996100 0.9 1017382
06:00+7с51096100 0.8 1019476
09:00+7с61095100 2.3 1022481
12:00+6с61294100 1.1 1023465
15:00+8ссв71191100 1.5 1025553
18:00+9ссв7129197 0.0 1025497
21:00+8ссв61394100 0.0 1025394
11 мая, вт
вт1100:00+8ссв61493100 0.0 1025405
03:00+7св51394100 0.0 1026332
06:00+8св61491100 0.0 1026389
09:00+12св71183100 0.0 1026433
12:00+17всв7971100 0.0 1026657
15:00+20всв6968100 0.0 1026969
18:00+18всв6127877 0.4 1026566
21:00+15всв5148826 0.4 1026339
12 мая, ср
ср1200:00+12вюв369392 0.0 1026124
03:00+11всв339423 0.0 102650
06:00+13в51285100 0.0 1025301
09:00+16в497658 0.0 1025345
12:00+21вюв7105892 0.0 10251022
15:00+22в695948 0.0 10241064
18:00+20в5106844 0.0 1024330
21:00+16в41176100 0.0 1024241
13 мая, чт
чт1300:00+16вюв61368100 0.0 1024430
03:00+14в4118596 0.1 1024281
06:00+14в5127835 0.0 1023372
09:00+19вюв6126383 0.0 1022760
12:00+20юв7960100 0.0 10221331
15:00+16вюв4886100 0.3 1022344
18:00+18вюв498247 0.3 1021692
21:00+14юв410901 0.6 1021179